Volver al catálogo

STARLINK-5571

ActivoComunicacionesVLEO
NORAD 55380·PAYLOAD·🇺🇸 United States

Lanzado Jan 26, 2023 desde Cape Canaveral Space Force Station

Loading…

Próximos Pases (próximas 24 horas)

TLE

ActualizadoSource: CelesTrak SupGP

Época: Sep 15, 2026, 01:37 UTC

1 55380C 23013BB  26258.06784722  .00029167  00000+0  10566-2 0  2581
2 55380  42.9999 317.9908 0001401 263.6853 160.7260 15.27558814    10

Sigue STARLINK-5571 en tiempo real con AllMySat

Download on the App Store